MKU675 PHOG-PHNL

Flight info

Callsign MKU675
Flight time 0h 40m
Altitude 8000
Route MAUI5 OGG LNY JULLE
Aircraft C208/L-SDFGR/C

Departure

Time 2026-04-22 21:18
Airport Kahului International Airport (PHOG)

Arrival

Time 2026-04-22 21:59
Airport Daniel K. Inouye International Airport (PHNL)
Time Latitude Longitude Altitude Speed Heading
2026-04-22 21:11 20.89642 -156.43596 44 ft 0 kts 65°
2026-04-22 21:16 20.89643 -156.43592 44 ft 4 kts 63°
2026-04-22 21:16 20.89698 -156.43603 44 ft 10 kts 339°
2026-04-22 21:17 20.89691 -156.43689 44 ft 12 kts 244°
2026-04-22 21:17 20.89682 -156.43759 44 ft 9 kts 313°
2026-04-22 21:17 20.89694 -156.43768 44 ft 1 kts 330°
2026-04-22 21:17 20.89756 -156.43785 44 ft 16 kts 19°
2026-04-22 21:18 20.89835 -156.43639 44 ft 39 kts 66°
2026-04-22 21:18 20.90024 -156.43184 104 ft 86 kts 62°
2026-04-22 21:18 20.90273 -156.42570 442 ft 94 kts 60°
2026-04-22 21:18 20.90698 -156.42046 760 ft 100 kts 19°
2026-04-22 21:19 20.91412 -156.41848 1088 ft 114 kts 15°
2026-04-22 21:19 20.92212 -156.41650 1422 ft 121 kts 13°
2026-04-22 21:19 20.93050 -156.41451 1746 ft 125 kts 13°
2026-04-22 21:19 20.93906 -156.41250 2069 ft 126 kts 12°
2026-04-22 21:20 20.94774 -156.41051 2393 ft 128 kts 12°
2026-04-22 21:20 20.95645 -156.41003 2693 ft 130 kts 342°
2026-04-22 21:20 20.96460 -156.41433 3012 ft 132 kts 334°
2026-04-22 21:20 20.97288 -156.41872 3340 ft 133 kts 335°
2026-04-22 21:21 20.98120 -156.42312 3679 ft 133 kts 335°
2026-04-22 21:21 20.98938 -156.42772 4016 ft 133 kts 331°
2026-04-22 21:21 20.99745 -156.43254 4352 ft 133 kts 332°
2026-04-22 21:21 21.00552 -156.43737 4697 ft 133 kts 332°
2026-04-22 21:22 21.01355 -156.44219 5035 ft 134 kts 332°
2026-04-22 21:22 21.02169 -156.44712 5371 ft 134 kts 331°
2026-04-22 21:22 21.02742 -156.45472 5696 ft 136 kts 287°
2026-04-22 21:22 21.02979 -156.46443 6041 ft 134 kts 286°
2026-04-22 21:23 21.03226 -156.47402 6374 ft 134 kts 286°
2026-04-22 21:23 21.03474 -156.48368 6686 ft 134 kts 286°
2026-04-22 21:23 21.03718 -156.49325 6986 ft 134 kts 286°
2026-04-22 21:23 21.03966 -156.50289 7291 ft 134 kts 286°
2026-04-22 21:24 21.04214 -156.51248 7592 ft 133 kts 286°
2026-04-22 21:24 21.04429 -156.52213 7900 ft 133 kts 273°
2026-04-22 21:24 21.04375 -156.53222 8017 ft 146 kts 267°
2026-04-22 21:24 21.04302 -156.54360 8024 ft 158 kts 266°
2026-04-22 21:25 21.04213 -156.55554 8022 ft 163 kts 266°
2026-04-22 21:25 21.04116 -156.56762 8014 ft 165 kts 266°
2026-04-22 21:25 21.04021 -156.57993 8015 ft 166 kts 266°
2026-04-22 21:25 21.03926 -156.59234 8014 ft 167 kts 266°
2026-04-22 21:26 21.03829 -156.60476 8017 ft 168 kts 266°
2026-04-22 21:26 21.03732 -156.61721 8017 ft 168 kts 266°
2026-04-22 21:26 21.03635 -156.62966 8017 ft 168 kts 266°
2026-04-22 21:26 21.03538 -156.64212 8014 ft 168 kts 266°
2026-04-22 21:27 21.03441 -156.65459 8012 ft 168 kts 266°
2026-04-22 21:27 21.03345 -156.66690 8012 ft 168 kts 266°
2026-04-22 21:27 21.03249 -156.67948 8014 ft 170 kts 266°
2026-04-22 21:27 21.03152 -156.69213 8016 ft 170 kts 266°
2026-04-22 21:28 21.03053 -156.70479 8017 ft 171 kts 266°
2026-04-22 21:28 21.02954 -156.71748 8020 ft 171 kts 266°
2026-04-22 21:28 21.02854 -156.73019 8023 ft 171 kts 266°
2026-04-22 21:28 21.02756 -156.74277 8025 ft 171 kts 266°
2026-04-22 21:29 21.02656 -156.75551 8025 ft 171 kts 266°
2026-04-22 21:29 21.02555 -156.76827 8024 ft 171 kts 266°
2026-04-22 21:29 21.02455 -156.78099 8022 ft 171 kts 266°
2026-04-22 21:29 21.02356 -156.79371 8020 ft 171 kts 266°
2026-04-22 21:30 21.02258 -156.80629 8031 ft 171 kts 266°
2026-04-22 21:30 21.02158 -156.81899 8033 ft 171 kts 266°
2026-04-22 21:30 21.02058 -156.83169 8034 ft 171 kts 266°
2026-04-22 21:30 21.01957 -156.84435 8033 ft 170 kts 266°
2026-04-22 21:31 21.01858 -156.85698 8035 ft 169 kts 266°
2026-04-22 21:31 21.01759 -156.86940 8034 ft 169 kts 266°
2026-04-22 21:31 21.01660 -156.88197 8035 ft 169 kts 266°
2026-04-22 21:31 21.01561 -156.89452 8030 ft 169 kts 266°
2026-04-22 21:32 21.01462 -156.90702 8024 ft 169 kts 266°
2026-04-22 21:32 21.01362 -156.91959 8025 ft 169 kts 266°
2026-04-22 21:32 21.01265 -156.93197 8030 ft 169 kts 266°
2026-04-22 21:32 21.01165 -156.94452 8030 ft 169 kts 266°
2026-04-22 21:33 21.01065 -156.95708 8030 ft 169 kts 266°
2026-04-22 21:33 21.00965 -156.96962 8030 ft 169 kts 266°
2026-04-22 21:33 21.00864 -156.98214 8029 ft 169 kts 266°
2026-04-22 21:33 21.00764 -156.99470 8029 ft 169 kts 266°
2026-04-22 21:34 21.00663 -157.00726 8029 ft 169 kts 266°
2026-04-22 21:34 21.00563 -157.01983 8028 ft 169 kts 266°
2026-04-22 21:34 21.00463 -157.03239 8027 ft 169 kts 266°
2026-04-22 21:34 21.00363 -157.04477 8027 ft 169 kts 266°
2026-04-22 21:35 21.00263 -157.05732 8024 ft 169 kts 266°
2026-04-22 21:35 21.00163 -157.06988 8023 ft 169 kts 266°
2026-04-22 21:35 21.00063 -157.08242 8021 ft 169 kts 266°
2026-04-22 21:35 20.99962 -157.09499 8020 ft 169 kts 266°
2026-04-22 21:36 20.99860 -157.10754 8017 ft 169 kts 266°
2026-04-22 21:36 20.99759 -157.12009 8015 ft 169 kts 266°
2026-04-22 21:36 20.99659 -157.13251 8013 ft 169 kts 266°
2026-04-22 21:36 20.99558 -157.14507 8011 ft 169 kts 266°
2026-04-22 21:37 20.99457 -157.15764 8008 ft 169 kts 266°
2026-04-22 21:37 20.99355 -157.17019 8005 ft 169 kts 266°
2026-04-22 21:37 20.99254 -157.18276 8003 ft 169 kts 266°
2026-04-22 21:37 20.99153 -157.19531 8001 ft 169 kts 266°
2026-04-22 21:38 20.99053 -157.20769 7996 ft 169 kts 266°
2026-04-22 21:38 20.98951 -157.22024 7992 ft 169 kts 266°
2026-04-22 21:38 20.98849 -157.23282 7990 ft 169 kts 266°
2026-04-22 21:38 20.98749 -157.24538 7989 ft 169 kts 266°
2026-04-22 21:39 20.98646 -157.25794 7990 ft 169 kts 267°
2026-04-22 21:39 20.98546 -157.27038 7986 ft 169 kts 266°
2026-04-22 21:39 20.98443 -157.28298 7986 ft 170 kts 267°
2026-04-22 21:39 20.98340 -157.29553 7986 ft 169 kts 267°
2026-04-22 21:40 20.98238 -157.30813 7980 ft 169 kts 266°
2026-04-22 21:40 20.98136 -157.32070 7978 ft 169 kts 266°
2026-04-22 21:40 20.98032 -157.33324 7983 ft 169 kts 267°
2026-04-22 21:40 20.97929 -157.34575 7983 ft 169 kts 266°
2026-04-22 21:41 20.97826 -157.35830 7986 ft 169 kts 267°
2026-04-22 21:41 20.97726 -157.37060 7986 ft 168 kts 267°
2026-04-22 21:41 20.97624 -157.38311 7986 ft 169 kts 267°
2026-04-22 21:41 20.97523 -157.39568 7986 ft 170 kts 266°
2026-04-22 21:42 20.97418 -157.40829 7983 ft 170 kts 266°
2026-04-22 21:42 20.97563 -157.42068 7980 ft 168 kts 288°
2026-04-22 21:42 20.97913 -157.43266 7978 ft 169 kts 289°
2026-04-22 21:42 20.98269 -157.44468 7981 ft 169 kts 289°
2026-04-22 21:43 20.98621 -157.45659 7985 ft 169 kts 289°
2026-04-22 21:43 20.98970 -157.46862 7987 ft 169 kts 289°
2026-04-22 21:43 20.99318 -157.48064 7989 ft 169 kts 289°
2026-04-22 21:43 20.99667 -157.49262 7984 ft 169 kts 289°
2026-04-22 21:44 21.00019 -157.50464 7984 ft 169 kts 289°
2026-04-22 21:44 21.00375 -157.51665 7982 ft 169 kts 289°
2026-04-22 21:44 21.00728 -157.52869 7987 ft 169 kts 289°
2026-04-22 21:44 21.01074 -157.54056 7984 ft 169 kts 288°
2026-04-22 21:45 21.01431 -157.55265 7982 ft 170 kts 289°
2026-04-22 21:45 21.01785 -157.56477 7986 ft 170 kts 289°
2026-04-22 21:45 21.02135 -157.57683 7982 ft 169 kts 289°
2026-04-22 21:45 21.02475 -157.58873 7980 ft 169 kts 289°
2026-04-22 21:46 21.02816 -157.60079 7988 ft 169 kts 288°
2026-04-22 21:46 21.03166 -157.61285 7984 ft 169 kts 289°
2026-04-22 21:46 21.03517 -157.62489 7985 ft 169 kts 289°
2026-04-22 21:46 21.03855 -157.63678 7982 ft 169 kts 288°
2026-04-22 21:47 21.04199 -157.64880 7980 ft 169 kts 289°
2026-04-22 21:47 21.04557 -157.66098 7862 ft 176 kts 289°
2026-04-22 21:47 21.04932 -157.67375 7672 ft 181 kts 289°
2026-04-22 21:47 21.05312 -157.68669 7485 ft 183 kts 289°
2026-04-22 21:48 21.05678 -157.69957 7301 ft 183 kts 289°
2026-04-22 21:48 21.06043 -157.71267 7118 ft 183 kts 289°
2026-04-22 21:48 21.06401 -157.72576 6930 ft 183 kts 288°
2026-04-22 21:48 21.06763 -157.73887 6743 ft 184 kts 289°
2026-04-22 21:49 21.07126 -157.75200 6556 ft 184 kts 288°
2026-04-22 21:49 21.07497 -157.76515 6360 ft 184 kts 289°
2026-04-22 21:49 21.07940 -157.77776 6164 ft 183 kts 298°
2026-04-22 21:49 21.08516 -157.78989 5967 ft 182 kts 300°
2026-04-22 21:50 21.08896 -157.79792 5837 ft 182 kts 300°
2026-04-22 21:50 21.09473 -157.81008 5654 ft 183 kts 299°
2026-04-22 21:50 21.10252 -157.82614 5388 ft 183 kts 300°
2026-04-22 21:50 21.10841 -157.83819 5168 ft 181 kts 300°
2026-04-22 21:51 21.11221 -157.84608 5024 ft 180 kts 299°
2026-04-22 21:51 21.11798 -157.85793 4801 ft 179 kts 300°
2026-04-22 21:51 21.12381 -157.86978 4575 ft 179 kts 300°
2026-04-22 21:52 21.13519 -157.89344 4130 ft 179 kts 300°
2026-04-22 21:52 21.14077 -157.90538 3910 ft 179 kts 299°
2026-04-22 21:52 21.14811 -157.91581 3684 ft 175 kts 329°
2026-04-22 21:52 21.15885 -157.92181 3474 ft 175 kts 337°
2026-04-22 21:53 21.16988 -157.92741 3254 ft 175 kts 337°
2026-04-22 21:53 21.18080 -157.93291 3038 ft 175 kts 338°
2026-04-22 21:53 21.19190 -157.93859 2820 ft 176 kts 338°
2026-04-22 21:53 21.20294 -157.94429 2603 ft 175 kts 337°
2026-04-22 21:54 21.21376 -157.94989 2507 ft 168 kts 338°
2026-04-22 21:54 21.22405 -157.95527 2506 ft 165 kts 338°
2026-04-22 21:54 21.23459 -157.96016 2420 ft 166 kts 342°
2026-04-22 21:54 21.24557 -157.96389 2296 ft 160 kts 347°
2026-04-22 21:55 21.25535 -157.96670 2158 ft 134 kts 348°
2026-04-22 21:55 21.26408 -157.96911 1982 ft 127 kts 351°
2026-04-22 21:55 21.27268 -157.96983 1766 ft 123 kts
2026-04-22 21:55 21.28093 -157.96779 1495 ft 122 kts 25°
2026-04-22 21:56 21.28769 -157.96258 1267 ft 127 kts 46°
2026-04-22 21:56 21.29368 -157.95573 1105 ft 117 kts 52°
2026-04-22 21:56 21.29834 -157.94941 910 ft 100 kts 56°
2026-04-22 21:56 21.30228 -157.94396 713 ft 88 kts 58°
2026-04-22 21:57 21.30591 -157.93883 545 ft 87 kts 60°
2026-04-22 21:57 21.30940 -157.93355 360 ft 86 kts 56°
2026-04-22 21:57 21.31299 -157.92854 172 ft 78 kts 61°
2026-04-22 21:57 21.31620 -157.92402 53 ft 75 kts 64°
2026-04-22 21:58 21.31904 -157.91999 24 ft 57 kts 55°
2026-04-22 21:58 21.32132 -157.91669 25 ft 57 kts 53°
2026-04-22 21:58 21.32375 -157.91325 25 ft 60 kts 53°
2026-04-22 21:58 21.32627 -157.90969 23 ft 54 kts 53°
2026-04-22 21:59 21.32796 -157.90728 24 ft 26 kts 54°
2026-04-22 21:59 21.32896 -157.90652 22 ft 14 kts 324°
2026-04-22 21:59 21.32995 -157.90726 22 ft 24 kts 326°
2026-04-22 21:59 21.33033 -157.90877 23 ft 20 kts 248°
2026-04-22 22:00 21.33004 -157.90999 24 ft 19 kts 329°
2026-04-22 22:00 21.33096 -157.91044 23 ft 11 kts 323°
2026-04-22 22:00 21.33114 -157.91079 25 ft 0 kts 232°